Find OneWeb SL0369

NORAD ID: 49295 Int'l Des: 2021-090 Owner: ONEWEBN Country: UK Constellation: oneweb operational
LEOCIRCULARPOLARONEWEB_TYPE

リアルタイム位置

3D地球を読み込み中...

OneWeb SL0369について

説明を読み込み中...

次回通過

Passes for default location (London). Set your location on the main map for personalized predictions.

高度履歴

Loading altitude history...

軌道要素

1 49295U 21090S 26125.95201801 .00000033 00000-0 49805-4 0 9999
2 49295 87.9144 313.3978 0001899 88.7420 271.3930 13.19724560220843
Epoch: May 5, 2026 • Age: 10 hours

現在のステータス

高度 1215.9 km
速度 7.25 km/s
衛星直下点 -85.34°S, 156.15°E
打ち上げ日 Oct 14, 2021
運用期間 4.5 years
タイプ internet

技術仕様

分類 Payload
質量 148.00 kg
乾燥質量 140.00 kg
総質量 148.00 kg
長さ 1.30 m
直径 1.00 m
スパン 5.00 m
形状 Trapezoid+2 pan
製造者 ONEWUS
バスタイプ ARROW
フェーズステータス In Orbit
所有者/国 ONEWEBN/UK

Most Searched